TimeEDT,TemperatureF,Dew PointF,Humidity,Sea Level PressureIn,VisibilityMPH,Wind Direction,Wind SpeedMPH,Gust SpeedMPH,PrecipitationIn,Events,Conditions,WindDirDegrees,DateUTC
12:15 AM,60.1,44.2,56,29.73,10.0,South,12.7,-,N/A,,Clear,170,2012-10-17 04:15:00
12:35 AM,59.9,44.6,57,29.73,10.0,South,11.5,17.3,N/A,,Clear,170,2012-10-17 04:35:00
12:55 AM,59.5,44.8,58,29.72,10.0,South,11.5,16.1,N/A,,Clear,180,2012-10-17 04:55:00
1:15 AM,59.5,45.5,60,29.72,10.0,South,10.4,-,N/A,,Clear,180,2012-10-17 05:15:00
1:35 AM,59.5,45.7,60,29.72,10.0,South,9.2,17.3,N/A,,Clear,180,2012-10-17 05:35:00
1:55 AM,59.9,46.4,61,29.73,10.0,South,10.4,-,N/A,,Clear,190,2012-10-17 05:55:00
2:15 AM,59.9,46.9,62,29.72,10.0,South,9.2,-,N/A,,Clear,190,2012-10-17 06:15:00
2:35 AM,59.9,47.3,63,29.73,10.0,SSW,10.4,-,N/A,,Clear,200,2012-10-17 06:35:00
2:55 AM,61.2,47.5,61,29.74,10.0,SSW,9.2,-,N/A,,Clear,200,2012-10-17 06:55:00
3:15 AM,61.3,47.3,60,29.73,10.0,SSW,11.5,17.3,N/A,,Clear,200,2012-10-17 07:15:00
3:35 AM,60.4,47.3,62,29.73,10.0,SSW,9.2,-,N/A,,Clear,200,2012-10-17 07:35:00
3:55 AM,59.4,46.9,63,29.72,10.0,SSW,10.4,-,N/A,,Clear,200,2012-10-17 07:55:00
4:15 AM,58.1,46.8,66,29.72,10.0,South,8.1,-,N/A,,Clear,190,2012-10-17 08:15:00
4:35 AM,57.4,46.6,67,29.72,10.0,SSW,8.1,-,N/A,,Clear,200,2012-10-17 08:35:00
4:55 AM,57.6,46.4,66,29.72,10.0,South,8.1,-,N/A,,Clear,190,2012-10-17 08:55:00
5:15 AM,57.4,46.4,67,29.72,10.0,SSW,8.1,-,N/A,,Clear,200,2012-10-17 09:15:00
5:35 AM,56.5,46.4,69,29.72,10.0,South,6.9,-,N/A,,Clear,190,2012-10-17 09:35:00
5:55 AM,55.6,46.2,71,29.72,10.0,South,6.9,-,N/A,,Clear,180,2012-10-17 09:55:00
6:15 AM,54.3,46.0,74,29.72,10.0,South,6.9,-,N/A,,Clear,180,2012-10-17 10:15:00
6:35 AM,53.6,45.9,75,29.71,10.0,South,6.9,-,N/A,,Clear,190,2012-10-17 10:35:00
6:55 AM,53.2,45.9,76,29.71,10.0,South,5.8,-,N/A,,Clear,180,2012-10-17 10:55:00
7:15 AM,53.2,45.9,76,29.71,10.0,South,6.9,-,N/A,,Clear,170,2012-10-17 11:15:00
7:35 AM,52.9,45.5,76,29.71,10.0,South,5.8,-,N/A,,Clear,180,2012-10-17 11:35:00
7:55 AM,52.9,45.9,77,29.72,10.0,South,6.9,-,N/A,,Clear,180,2012-10-17 11:55:00
8:15 AM,52.2,45.5,78,29.72,10.0,South,5.8,-,N/A,,Clear,180,2012-10-17 12:15:00
8:35 AM,53.6,46.4,77,29.72,10.0,South,6.9,-,N/A,,Clear,170,2012-10-17 12:35:00
8:55 AM,55.4,46.6,72,29.72,10.0,South,8.1,-,N/A,,Clear,170,2012-10-17 12:55:00
9:15 AM,57.2,46.6,68,29.73,10.0,South,9.2,-,N/A,,Clear,180,2012-10-17 13:15:00
9:35 AM,58.5,46.6,65,29.72,10.0,South,12.7,17.3,N/A,,Clear,170,2012-10-17 13:35:00
9:55 AM,60.1,46.8,61,29.72,10.0,South,13.8,-,N/A,,Clear,180,2012-10-17 13:55:00
10:15 AM,62.2,46.6,57,29.71,10.0,South,12.7,19.6,N/A,,Clear,190,2012-10-17 14:15:00
10:35 AM,63.3,47.3,56,29.71,10.0,South,16.1,19.6,N/A,,Clear,190,2012-10-17 14:35:00
10:55 AM,64.6,47.1,53,29.71,10.0,South,15.0,24.2,N/A,,Clear,180,2012-10-17 14:55:00
11:15 AM,66.4,47.3,50,29.70,10.0,South,13.8,25.3,N/A,,Clear,180,2012-10-17 15:15:00
11:35 AM,65.8,47.1,51,29.69,10.0,South,13.8,18.4,N/A,,Clear,190,2012-10-17 15:35:00
11:55 AM,66.4,46.8,49,29.68,10.0,South,13.8,24.2,N/A,,Clear,190,2012-10-17 15:55:00
12:15 PM,67.1,46.6,48,29.68,10.0,South,15.0,21.9,N/A,,Clear,180,2012-10-17 16:15:00
12:35 PM,69.1,46.6,45,29.68,7.0,South,18.4,27.6,N/A,,Clear,190,2012-10-17 16:35:00
12:55 PM,69.3,46.6,44,29.67,10.0,South,17.3,25.3,N/A,,Clear,190,2012-10-17 16:55:00
1:15 PM,70.5,46.2,42,29.67,10.0,SSW,20.7,28.8,N/A,,Clear,200,2012-10-17 17:15:00
1:35 PM,70.7,46.4,42,29.66,10.0,South,17.3,26.5,N/A,,Mostly Cloudy,190,2012-10-17 17:35:00
1:55 PM,70.3,45.5,41,29.65,10.0,SSW,19.6,25.3,N/A,,Overcast,200,2012-10-17 17:55:00
2:15 PM,68.9,44.6,42,29.64,10.0,South,21.9,29.9,N/A,,Overcast,190,2012-10-17 18:15:00
2:35 PM,68.5,45.0,43,29.63,10.0,South,16.1,26.5,N/A,,Overcast,190,2012-10-17 18:35:00
2:55 PM,68.4,45.1,43,29.62,10.0,South,13.8,24.2,N/A,,Overcast,190,2012-10-17 18:55:00
3:15 PM,69.1,45.0,42,29.61,10.0,South,16.1,24.2,N/A,,Overcast,180,2012-10-17 19:15:00
3:35 PM,68.7,44.8,42,29.60,10.0,South,16.1,26.5,N/A,Thunderstorm,Mostly Cloudy,190,2012-10-17 19:35:00
3:55 PM,64.6,48.4,56,29.61,7.0,South,11.5,24.2,0.01,Rain-Thunderstorm,Thunderstorms and Rain,190,2012-10-17 19:55:00
4:35 PM,58.3,50.0,74,29.60,10.0,South,6.9,-,0.08,Rain-Thunderstorm,Thunderstorms and Rain,170,2012-10-17 20:35:00
4:55 PM,57.7,51.3,79,29.59,7.0,South,3.5,-,0.10,Rain-Thunderstorm,Light Thunderstorms and Rain,170,2012-10-17 20:55:00
5:15 PM,57.6,52.0,82,29.59,10.0,ESE,3.5,-,0.02,Rain-Thunderstorm,Thunderstorms and Rain,120,2012-10-17 21:15:00
5:35 PM,59.0,52.3,79,29.58,5.0,SSE,10.4,-,0.05,Rain-Thunderstorm,Heavy Thunderstorms and Rain,150,2012-10-17 21:35:00
5:55 PM,59.7,52.9,78,29.58,7.0,SE,9.2,-,0.07,Rain-Thunderstorm,Light Thunderstorms and Rain,140,2012-10-17 21:55:00
6:15 PM,60.3,53.2,78,29.58,10.0,SSE,10.4,-,N/A,,Overcast,150,2012-10-17 22:15:00
6:35 PM,60.8,52.7,75,29.57,10.0,SSE,11.5,-,N/A,Thunderstorm,Overcast,160,2012-10-17 22:35:00
6:55 PM,60.1,52.9,77,29.56,10.0,SE,9.2,-,N/A,,Mostly Cloudy,140,2012-10-17 22:55:00
7:15 PM,60.1,52.9,77,29.55,10.0,SE,16.1,-,N/A,,Overcast,140,2012-10-17 23:15:00
7:35 PM,60.8,52.7,75,29.54,10.0,SE,15.0,21.9,N/A,,Overcast,140,2012-10-17 23:35:00
7:55 PM,60.8,52.0,73,29.53,10.0,SE,12.7,-,N/A,,Mostly Cloudy,140,2012-10-17 23:55:00
8:15 PM,60.4,52.2,74,29.52,10.0,SE,9.2,-,N/A,,Mostly Cloudy,140,2012-10-18 00:15:00
8:35 PM,60.8,51.8,72,29.51,10.0,SE,10.4,-,N/A,,Mostly Cloudy,140,2012-10-18 00:35:00
8:55 PM,61.0,50.9,69,29.49,10.0,SE,11.5,16.1,N/A,,Mostly Cloudy,130,2012-10-18 00:55:00
9:15 PM,61.5,50.4,67,29.48,10.0,SE,10.4,-,N/A,,Scattered Clouds,130,2012-10-18 01:15:00
9:35 PM,61.7,50.4,66,29.47,10.0,SE,13.8,-,N/A,,Mostly Cloudy,140,2012-10-18 01:35:00
9:55 PM,62.2,50.0,64,29.46,10.0,SE,12.7,-,N/A,,Overcast,140,2012-10-18 01:55:00
10:15 PM,62.4,50.0,64,29.46,10.0,SSE,12.7,-,N/A,,Overcast,150,2012-10-18 02:15:00
10:35 PM,62.6,49.6,63,29.46,10.0,SSE,11.5,-,N/A,,Overcast,150,2012-10-18 02:35:00
10:55 PM,62.8,49.6,62,29.47,10.0,SSE,10.4,18.4,N/A,Rain,Light Rain,160,2012-10-18 02:55:00
11:15 PM,63.9,49.1,59,29.49,10.0,South,11.5,18.4,N/A,Rain,Rain,190,2012-10-18 03:15:00
11:35 PM,62.1,50.9,67,29.50,10.0,South,11.5,19.6,N/A,Rain,Light Rain,190,2012-10-18 03:35:00
11:55 PM,60.8,51.3,71,29.50,10.0,SSW,12.7,18.4,0.01,Rain,Light Rain,210,2012-10-18 03:55:00